Regional Weather Roundup
Issued by NWS

Home | Current Version | Previous Version | Graphics & Text | Print | Product List | Glossary On
Versions: 1 2 3 4 5 6 7 8 9 10 11 12 13 14 15 16 17 18 19 20 21 22 23 24 25 26 27 28 29 30 31 32 33 34 35 36 37 38 39 40 41 42 43 44 45 46 47 48 49 50
000
ASUS43 KFSD 292310
RWRSD

WEATHER ROUNDUP FOR SOUTH DAKOTA
NATIONAL WEATHER SERVICE SIOUX FALLS SD
600 PM CDT WED JUL 29 2015

NOTE: "FAIR" INDICATES FEW OR NO CLOUDS BELOW 12,000 FEET WITH NO
SIGNIFICANT WEATHER AND/OR OBSTRUCTIONS TO VISIBILITY.


SDZ001>005-009-010-012>017-300000-
NORTHWEST AND NORTH CENTRAL SOUTH DAKOTA

CITY           SKY/WX    TMP DP  RH WIND       PRES   REMARKS
BUFFALO          N/A     82  37  20 W20G29    30.09F
FAITH            N/A     85  33  15 W16G25    30.12F
MOBRIDGE       SUNNY     85  46  25 NW17G24   30.05S
$$

SDZ012>016-024>037-041>051-057-063-072>074-300000-
SOUTHWEST AND SOUTH CENTRAL SOUTH DAKOTA

CITY           SKY/WX    TMP DP  RH WIND       PRES   REMARKS
RAPID CTY ARPT SUNNY     84  43  23 CALM      30.17F
PIERRE         SUNNY     87  39  18 W17       30.07F
CUSTER         SUNNY     73  35  25 NW7       30.31F
ELLSWORTH AFB  SUNNY     82  41  23 CALM      30.17F
PHILIP         SUNNY     86  46  24 NW9       30.12F
PINE RIDGE     SUNNY     83  47  28 CALM      30.19F
SPEARFISH      FAIR      77  41  27 N9G16     30.22S
WINNER         FAIR      87  43  21 W16       30.13F
$$

SDZ004>011-016>023-039-040-300000-
NORTHEAST SOUTH DAKOTA

CITY           SKY/WX    TMP DP  RH WIND       PRES   REMARKS
ABERDEEN       MOSUNNY   83  47  28 W25G35    30.02S
WATERTOWN      SUNNY     80  49  33 W23G30    30.05R
BROOKINGS      SUNNY     81  52  36 NW16G22   30.08S
SISSETON         N/A     80  53  39 NW15      29.98R
$$

SDZ017-020-022-023-036>040-048>070-300000-
SOUTHEAST SOUTH DAKOTA

CITY           SKY/WX    TMP DP  RH WIND       PRES   REMARKS
SIOUX FALLS    MOSUNNY   83  52  34 W9G18     30.07F
HURON          SUNNY     85  48  27 NW20G26   30.05S
CHAMBERLAIN    SUNNY     84  47  27 W14G22    30.10S
MITCHELL       SUNNY     86  50  28 W10G20    30.07F
YANKTON        SUNNY     84  54  34 W9G17     30.09S
$$

ABBREVIATIONS USED IN REMARKS
   TC - TEMPERATURE IN CELSIUS
  WCI - WIND CHILL INDEX
   HX - HEAT INDEX
  VSB - VISIBILITY




USA.gov is the U.S. government's official web portal to all federal, state and local government web resources and services.